Regional Weather Roundup
Issued by NWS

Home | Current Version | Previous Version | Text Only | Print | Product List | Glossary Off
Versions: 1 2 3 4 5 6 7 8 9 10 11 12 13 14 15 16 17 18 19 20 21 22 23 24 25 26 27 28 29 30 31 32 33 34 35 36 37 38 39 40 41 42 43 44 45 46 47 48 49 50

572
ASUS43 KMPX 270410
RWRMN
WEATHER ROUNDUP FOR MINNESOTA
NATIONAL WEATHER SERVICE TWIN CITIES/CHANHASSEN MN
1100 PM CDT THU MAY 26 2016


NOTE: "FAIR" INDICATES FEW OR NO CLOUDS BELOW 12,000 FEET WITH NO
SIGNIFICANT WEATHER AND/OR OBSTRUCTIONS TO VISIBILITY. N/A MEANS
CURRENT SKY AND/OR WEATHER CONDITIONS ARE NOT AVAILABLE.

MNZ060>063-068>070-270500-
   Twin Cities Metro

CITY           SKY/WX    TMP DP  RH WIND       PRES   REMARKS
TWIN CITIES    CLOUDY    72  52  49 SE3       29.80F
ST PAUL        CLOUDY    69  56  62 NE5       29.80F
CRYSTAL        CLOUDY    66  54  65 CALM      29.79F
BLAINE         CLOUDY    68  55  64 CALM      29.81F
EDEN PRAIRIE   CLOUDY    68  56  65 NE3       29.79F
SOUTH ST PAUL  CLOUDY    70  54  56 CALM      29.81S
LAKE ELMO      FAIR      64  55  72 CALM      29.82F
$$
MNZ001>005-007-008-013>017-022>024-027-028-270500-
   Northwest Minnesota

CITY           SKY/WX    TMP DP  RH WIND       PRES   REMARKS
BEMIDJI        CLEAR     56  50  80 S5        29.80F
HALLOCK        MOCLDY    59  55  88 W5        29.77F
ROSEAU         CLEAR     59  54  82 SW5       29.77S
WARROAD        CLEAR     59  55  88 SW6       29.77S
THIEF RVR FALL CLEAR     59  52  77 NW8       29.79F
CROOKSTON      CLEAR     59  55  88 N8        29.78S
FOSSTON        CLEAR     57  52  82 S5        29.79S
DETROIT LAKES  CLEAR     64  54  68 SE5       29.81S
MOORHEAD       PTCLDY    64  57  77 E5        29.78R
PARK RAPIDS    CLOUDY    63  52  67 SE5       29.81S
MAHNOMEN       FAIR      61  54  78 SE7       29.78S
$$
MNZ006-009>011-018-025>026-270500-
   North Central Minnesota

CITY           SKY/WX    TMP DP  RH WIND       PRES   REMARKS
BAUDETTE       PTCLDY    58  52  80 SW5       29.77R
FLAG ISLAND    CLEAR     61  55  82 SW8       29.74S
INTL FALLS     CLEAR     58  52  80 SW5       29.78R
WASKISH        CLEAR     59  54  82 S3        29.78F
BIG FORK       CLEAR     54  50  87 SW3       29.81S
LONGVILLE      CLOUDY    54  52  94 CALM      29.81F
GRAND RAPIDS   CLOUDY    63  50  62 S3        29.83F
CRANE LAKE     MOCLDY    54  54 100 CALM      29.80S FOG
ORR            CLOUDY    57  54  88 CALM      29.78R
COOK           CLEAR     61  52  72 SW3       29.81R
WALKER         FAIR      55  51  86 CALM      29.81S
$$
MNZ012-019>021-037-270500-
   Northeast Minnesota

CITY           SKY/WX    TMP DP  RH WIND       PRES   REMARKS
DULUTH         CLOUDY    51  48  89 CALM      29.82F
ELY            MOCLDY    63  54  72 CALM      29.81R
HIBBING        CLOUDY    52  50  93 CALM      29.80S
EVELETH        CLOUDY    59  50  72 CALM      29.82F
DULUTH HARBOR  FOG       46  46 100 CALM      29.84F VSB 3/4
TWO HARBORS    CLOUDY    50  45  81 CALM      29.81F HAZE
SILVER BAY     CLOUDY    52  52 100 CALM      29.81F VSB 1/4
GRAND MARAIS     N/A     47  46  97 CALM      29.83F
G MARAIS ARPRT CLOUDY    48  45  87 CALM      29.84F FOG
$$
MNZ029>031-032-039>041-046>048-054>057-064-270500-
   West Central Minnesota

CITY           SKY/WX    TMP DP  RH WIND       PRES   REMARKS
FERGUS FALLS   CLOUDY    70  52  52 SE6       29.77R
WHEATON        PTCLDY    68  54  60 S5        29.81R
MORRIS         PTCLDY    64  46  52 CALM      29.79R
ALEXANDRIA     PTCLDY    65  50  58 SE5       29.82R
ELBOW LAKE     FAIR      66  52  59 E3        29.81R
WADENA         CLOUDY    61  52  72 E5        29.80S
GLENWOOD       PTCLDY    64  50  59 E5        29.82R
APPLETON       PTCLDY    63  54  72 CALM      29.79R
BENSON         CLOUDY    61  52  72 CALM      29.79
ORTONVILLE     CLOUDY    66  50  55 CALM      29.79R
MADISON        PTCLDY    63  52  67 CALM      29.79S
WILLMAR        FAIR      66  54  63 CALM      29.82R
$$
MNZ033>034-036-042>043-049>051-058-059-270500-
   Central Minnesota

CITY           SKY/WX    TMP DP  RH WIND       PRES   REMARKS
ST CLOUD       CLOUDY    67  51  56 E6        29.80S
SAUK CENTRE    FAIR      63  51  66 E3        29.82R
PAYNESVILLE    CLOUDY    64  53  66 CALM      29.80F
AITKIN         CLOUDY    55  50  82 CALM      29.81F
PINE RIVER     CLOUDY    55  54  94 CALM      29.85S
BRAINERD       MOCLDY    58  53  84 CALM      29.82S
STAPLES        CLOUDY    61  52  72 CALM      29.81S
LONG PRAIRIE   FAIR      61  54  77 CALM      29.82R
LITTLE FALLS   MOCLDY    57  52  82 SE5       29.81S
LITCHFIELD     CLOUDY    66  57  72 SE3       29.81S
BUFFALO        PTCLDY    68  54  61 CALM      29.82S
MAPLE LAKE     MOCLDY    69  56  62 S3        29.82S
HUTCHINSON     CLEAR     68  58  71 CALM      29.82S
$$
MNZ037-044-045-052-053-270500-
   East Central Minnesota

CITY           SKY/WX    TMP DP  RH WIND       PRES   REMARKS
PRINCETON      CLOUDY    64  55  72 SE3       29.82R
MORA           MOCLDY    59  52  77 CALM      29.84R
CAMBRIDGE      CLOUDY    64  54  68 CALM      29.80R
RUSH CITY      MOCLDY    59  54  83 CALM      29.82S
MOOSE LAKE     CLOUDY    54  50  87 CALM      29.81S
HINCKLEY       FAIR      55  54  94 CALM      29.82S
CLOQUET        CLOUDY    50  48  93 CALM      29.83F
MCGREGOR       CLOUDY    55  50  82 CALM      29.83F
$$
MNZ071>073-080-081-089-090-097-098-270500-
   Southwest Minnesota

CITY           SKY/WX    TMP DP  RH WIND       PRES   REMARKS
MONTEVIDEO     CLOUDY    66  48  52 CALM      29.81R
GRANITE FALLS  MOCLDY    68  53  58 CALM      29.81R
CANBY          MOCLDY    62  56  81 NW3       29.80S
MARSHALL       MOCLDY    68  53  58 S6        29.81R
REDWOOD FALLS  CLOUDY    68  54  60 CALM      29.79R
OLIVIA         CLOUDY    61  46  59 CALM      29.80S
PIPESTONE      CLOUDY    66  54  63 SE7       29.82R
WINDOM         CLOUDY    66  57  72 CALM      29.82R
WORTHINGTON    CLOUDY    65  58  78 S6        29.83R
JACKSON        CLOUDY    64  54  68 S6        29.84R
TRACY          CLOUDY    68  55  62 S3        29.80R
SLAYTON        CLOUDY    66  54  64 SE8       29.82R
$$
MNZ065>067-074>077-082>085-091>093-270500-
   South Central Minnesota

CITY           SKY/WX    TMP DP  RH WIND       PRES   REMARKS
MANKATO        CLOUDY    70  52  52 SE10      29.82S
NEW ULM        CLOUDY    68  54  60 SE8       29.81R
ST JAMES       MOCLDY    64  54  68 SE7       29.82R
FAIRMONT       PTCLDY    66  55  68 S7        29.83S
GLENCOE        CLOUDY    66  59  77 CALM      29.79F
FARIBAULT      MOCLDY    68  55  64 SE5       29.84R
OWATONNA       CLOUDY    66  55  68 SE8       29.85S
WASECA         CLOUDY    63  55  77 SE8       29.85F
ALBERT LEA     CLOUDY    70  59  68 S5        29.86R
$$
MNZ078>079-086>088-094>096-270500-
   Southeast Minnesota

CITY           SKY/WX    TMP DP  RH WIND       PRES   REMARKS
ROCHESTER      CLOUDY    66  60  81 CALM      29.87S
STANTON        CLOUDY    65  57  75 S8        29.82R
DODGE CENTER   CLOUDY    64  57  77 SE3       29.86F
WINONA         CLOUDY    70  61  73 CALM      29.86R
AUSTIN         CLOUDY    68  57  68 SW12G18   29.87R
PRESTON        CLOUDY    64  58  82 CALM      29.88S
$$
ABBREVIATIONS USED IN REMARKS
   TC - TEMPERATURES IN CELSIUS
  WCI - WIND CHILL INDEX
   HX - HEAT INDEX
  VSB - VISIBILITY
$$




USA.gov is the U.S. government's official web portal to all federal, state and local government web resources and services.